| time (UTC) | temp F | wind direction | speed MPH | gust MPH | rain 1hr in | rain 24hr in | rain mn in | humidity % | barometer mb |
| 20260906143517 | 75 | 180 | 9.0 | 11.0 | 0.00 | 0.00 | 0.00 | 85 | 1017.3 |
| 20260906142537 | 75 | 179 | 8.0 | 12.0 | 0.00 | 0.00 | 0.00 | 86 | 1017.3 |
| 20260906141516 | 75 | 178 | 9.0 | 11.0 | 0.00 | 0.00 | 0.00 | 86 | 1017.4 |
| 20260906140517 | 74 | 179 | 9.0 | 11.0 | 0.00 | 0.00 | 0.00 | 87 | 1017.1 |
| 20260906135516 | 74 | 178 | 8.0 | 10.0 | 0.00 | 0.00 | 0.00 | 87 | 1017.2 |
| 20260906134556 | 74 | 179 | 9.0 | 12.0 | 0.00 | 0.00 | 0.00 | 87 | 1017.3 |
| 20260906133557 | 74 | 177 | 9.0 | 13.0 | 0.00 | 0.00 | 0.00 | 87 | 1017.1 |
| 20260906132516 | 74 | 179 | 9.0 | 10.0 | 0.00 | 0.00 | 0.00 | 88 | 1017.0 |
| 20260906131537 | 74 | 179 | 9.0 | 10.0 | 0.00 | 0.00 | 0.00 | 87 | 1017.1 |
| 20260906130517 | 74 | 177 | 9.0 | 10.0 | 0.00 | 0.00 | 0.00 | 87 | 1017.2 |
| 20260906125516 | 74 | 178 | 9.0 | 11.0 | 0.00 | 0.00 | 0.00 | 88 | 1017.2 |
| 20260906124517 | 74 | 179 | 9.0 | 11.0 | 0.00 | 0.00 | 0.00 | 88 | 1017.0 |
| 20260906123516 | 74 | 180 | 8.0 | 9.0 | 0.00 | 0.00 | 0.00 | 87 | 1016.9 |
| 20260906122516 | 73 | 178 | 9.0 | 10.0 | 0.00 | 0.00 | 0.00 | 87 | 1016.8 |
| 20260906121516 | 74 | 179 | 9.0 | 11.0 | 0.00 | 0.00 | 0.00 | 87 | 1016.8 |
| 20260906120536 | 74 | 175 | 9.0 | 9.0 | 0.00 | 0.00 | 0.00 | 87 | 1016.6 |
| 20260906115517 | 74 | 178 | 9.0 | 10.0 | 0.00 | 0.00 | 0.00 | 86 | 1016.4 |
| 20260906114516 | 74 | 177 | 9.0 | 9.0 | 0.00 | 0.00 | 0.00 | 86 | 1016.3 |
| 20260906113518 | 74 | 178 | 9.0 | 10.0 | 0.00 | 0.00 | 0.00 | 86 | 1016.2 |
| 20260906112517 | 74 | 179 | 9.0 | 10.0 | 0.00 | 0.00 | 0.00 | 86 | 1016.2 |
| 20260906111516 | 75 | 177 | 9.0 | 10.0 | 0.00 | 0.00 | 0.00 | 85 | 1016.3 |
| 20260906110536 | 75 | 180 | 9.0 | 10.0 | 0.00 | 0.00 | 0.00 | 86 | 1016.2 |
| 20260906105516 | 75 | 181 | 9.0 | 10.0 | 0.00 | 0.00 | 0.00 | 85 | 1016.1 |
| 20260906104516 | 75 | 180 | 9.0 | 10.0 | 0.00 | 0.00 | 0.00 | 85 | 1016.0 |
| 20260906103517 | 75 | 180 | 9.0 | 10.0 | 0.00 | 0.00 | 0.00 | 85 | 1016.0 |
| 20260906102536 | 76 | 180 | 9.0 | 10.0 | 0.00 | 0.00 | 0.00 | 85 | 1015.8 |
| 20260906101516 | 76 | 179 | 8.0 | 9.0 | 0.00 | 0.00 | 0.00 | 85 | 1016.0 |
| 20260906100516 | 76 | 180 | 9.0 | 10.0 | 0.00 | 0.00 | 0.00 | 85 | 1015.9 |
| 20260906095557 | 77 | 179 | 9.0 | 10.0 | 0.00 | 0.00 | 0.00 | 85 | 1015.7 |
| 20260906094537 | 77 | 178 | 9.0 | 11.0 | 0.00 | 0.00 | 0.00 | 85 | 1015.6 |
| 20260906093516 | 77 | 178 | 9.0 | 11.0 | 0.00 | 0.00 | 0.00 | 85 | 1015.7 |
| 20260906092537 | 77 | 179 | 8.0 | 10.0 | 0.00 | 0.00 | 0.00 | 84 | 1015.5 |
| 20260906091516 | 78 | 178 | 9.0 | 12.0 | 0.00 | 0.00 | 0.00 | 84 | 1015.5 |
| 20260906090601 | 78 | 180 | 9.0 | 10.0 | 0.00 | 0.00 | 0.00 | 84 | 1015.5 |
| 20260906085516 | 78 | 179 | 9.0 | 11.0 | 0.00 | 0.00 | 0.00 | 84 | 1015.4 |
| 20260906084516 | 79 | 181 | 9.0 | 10.0 | 0.00 | 0.00 | 0.00 | 84 | 1015.4 |
| 20260906083517 | 79 | 180 | 9.0 | 10.0 | 0.00 | 0.00 | 0.00 | 84 | 1015.3 |
| 20260906082516 | 79 | 180 | 9.0 | 10.0 | 0.00 | 0.00 | 0.00 | 84 | 1015.2 |
| 20260906081517 | 80 | 182 | 9.0 | 11.0 | 0.00 | 0.00 | 0.00 | 83 | 1015.0 |
| 20260906080517 | 80 | 181 | 9.0 | 11.0 | 0.00 | 0.00 | 0.00 | 83 | 1015.1 |
| 20260906075516 | 80 | 180 | 9.0 | 11.0 | 0.00 | 0.00 | 0.00 | 82 | 1015.1 |
| 20260906074516 | 81 | 181 | 9.0 | 10.0 | 0.00 | 0.00 | 0.00 | 82 | 1015.1 |
| 20260906073516 | 81 | 181 | 8.0 | 10.0 | 0.00 | 0.00 | 0.00 | 82 | 1015.2 |
| 20260906072517 | 82 | 181 | 9.0 | 10.0 | 0.00 | 0.00 | 0.00 | 82 | 1015.3 |
| 20260906071536 | 82 | 179 | 9.0 | 12.0 | 0.00 | 0.00 | 0.00 | 82 | 1015.1 |
| 20260906070516 | 82 | 180 | 9.0 | 12.0 | 0.00 | 0.00 | 0.00 | 81 | 1015.0 |
| 20260906065536 | 82 | 181 | 9.0 | 10.0 | 0.00 | 0.00 | 0.00 | 81 | 1015.0 |
| 20260906064516 | 83 | 175 | 10.0 | 13.0 | 0.00 | 0.00 | 0.00 | 81 | 1015.0 |
| 20260906063516 | 83 | 180 | 9.0 | 11.0 | 0.00 | 0.00 | 0.00 | 80 | 1015.1 |
| 20260906062516 | 83 | 179 | 9.0 | 12.0 | 0.00 | 0.00 | 0.00 | 80 | 1015.0 |
| 20260906061516 | 83 | 176 | 10.0 | 14.0 | 0.00 | 0.00 | 0.00 | 79 | 1015.1 |
| 20260906060516 | 83 | 179 | 9.0 | 11.0 | 0.00 | 0.00 | 0.00 | 79 | 1015.1 |
| 20260906055537 | 84 | 180 | 9.0 | 10.0 | 0.00 | 0.00 | 0.00 | 78 | 1015.0 |
| 20260906054516 | 84 | 181 | 9.0 | 10.0 | 0.00 | 0.00 | 0.00 | 78 | 1014.9 |
| 20260906053516 | 84 | 180 | 10.0 | 12.0 | 0.00 | 0.00 | 0.00 | 78 | 1015.0 |
| 20260906052516 | 84 | 180 | 9.0 | 11.0 | 0.00 | 0.00 | 0.00 | 77 | 1014.9 |
| 20260906051536 | 84 | 181 | 9.0 | 10.0 | 0.00 | 0.00 | 0.00 | 77 | 1014.9 |
| 20260906050537 | 84 | 182 | 9.0 | 10.0 | 0.00 | 0.00 | 0.00 | 77 | 1015.1 |
| 20260906045557 | 84 | 181 | 9.0 | 10.0 | 0.00 | 0.00 | 0.00 | 77 | 1014.8 |
| 20260906044517 | 84 | 181 | 9.0 | 10.0 | 0.00 | 0.00 | 0.00 | 76 | 1014.7 |
| 20260906043516 | 84 | 181 | 10.0 | 11.0 | 0.00 | 0.00 | 0.00 | 76 | 1014.7 |
| 20260906042516 | 84 | 182 | 9.0 | 10.0 | 0.00 | 0.00 | 0.00 | 76 | 1014.5 |
| 20260906041516 | 84 | 182 | 9.0 | 10.0 | 0.00 | 0.00 | 0.00 | 76 | 1014.5 |
| 20260906040516 | 84 | 181 | 10.0 | 10.0 | 0.00 | 0.00 | 0.00 | 75 | 1014.4 |
| 20260906035516 | 85 | 181 | 9.0 | 11.0 | 0.00 | 0.00 | 0.00 | 75 | 1014.4 |
| 20260906034516 | 85 | 181 | 9.0 | 10.0 | 0.00 | 0.00 | 0.00 | 75 | 1014.3 |
| 20260906033516 | 85 | 181 | 9.0 | 11.0 | 0.00 | 0.00 | 0.00 | 74 | 1014.3 |
| 20260906032516 | 85 | 181 | 9.0 | 10.0 | 0.00 | 0.00 | 0.00 | 74 | 1014.3 |
| 20260906031516 | 85 | 180 | 9.0 | 10.0 | 0.00 | 0.00 | 0.00 | 73 | 1014.0 |
| 20260906030517 | 86 | 181 | 9.0 | 11.0 | 0.00 | 0.00 | 0.00 | 72 | 1014.0 |
| 20260906025516 | 86 | 181 | 9.0 | 10.0 | 0.00 | 0.00 | 0.00 | 71 | 1013.8 |
| 20260906024516 | 87 | 181 | 9.0 | 11.0 | 0.00 | 0.00 | 0.00 | 71 | 1013.8 |
| 20260906023517 | 87 | 182 | 10.0 | 11.0 | 0.00 | 0.00 | 0.00 | 69 | 1013.6 |
| 20260906022516 | 87 | 182 | 9.0 | 10.0 | 0.00 | 0.00 | 0.00 | 68 | 1013.7 |
| 20260906021517 | 88 | 182 | 9.0 | 10.0 | 0.00 | 0.00 | 0.00 | 67 | 1013.3 |
| 20260906020537 | 88 | 182 | 9.0 | 11.0 | 0.00 | 0.00 | 0.00 | 66 | 1013.3 |
| 20260906015516 | 88 | 183 | 9.0 | 10.0 | 0.00 | 0.00 | 0.00 | 66 | 1013.1 |
| 20260906014516 | 88 | 181 | 10.0 | 11.0 | 0.00 | 0.00 | 0.00 | 65 | 1013.0 |
| 20260906013517 | 89 | 182 | 10.0 | 11.0 | 0.00 | 0.00 | 0.00 | 64 | 1012.9 |
| 20260906012516 | 89 | 183 | 9.0 | 10.0 | 0.00 | 0.00 | 0.00 | 64 | 1012.7 |
| 20260906011516 | 89 | 183 | 9.0 | 10.0 | 0.00 | 0.00 | 0.00 | 63 | 1012.6 |
| 20260906010516 | 90 | 182 | 10.0 | 11.0 | 0.00 | 0.00 | 0.00 | 62 | 1012.6 |
| 20260906005536 | 90 | 182 | 9.0 | 10.0 | 0.00 | 0.00 | 0.00 | 62 | 1012.4 |
| 20260906004517 | 91 | 181 | 9.0 | 10.0 | 0.00 | 0.00 | 0.00 | 62 | 1012.4 |
| 20260906003516 | 91 | 180 | 9.0 | 10.0 | 0.00 | 0.00 | 0.00 | 61 | 1012.4 |
| 20260906002516 | 91 | 180 | 9.0 | 11.0 | 0.00 | 0.00 | 0.00 | 60 | 1012.5 |
| 20260906001516 | 92 | 179 | 9.0 | 11.0 | 0.00 | 0.00 | 0.00 | 58 | 1012.5 |
| 20260906000516 | 92 | 182 | 10.0 | 12.0 | 0.00 | 0.00 | 0.00 | 57 | 1012.6 |
| 20260905235516 | 93 | 182 | 10.0 | 11.0 | 0.00 | 0.00 | 0.00 | 55 | 1012.5 |
| 20260905234516 | 93 | 181 | 10.0 | 11.0 | 0.00 | 0.00 | 0.00 | 55 | 1012.4 |
| 20260905233516 | 94 | 184 | 10.0 | 12.0 | 0.00 | 0.00 | 0.00 | 53 | 1012.6 |
| 20260905232542 | 94 | 183 | 9.0 | 11.0 | 0.00 | 0.00 | 0.00 | 53 | 1012.5 |
| 20260905231516 | 94 | 184 | 10.0 | 12.0 | 0.00 | 0.00 | 0.00 | 53 | 1012.5 |
| 20260905230516 | 95 | 184 | 10.0 | 11.0 | 0.00 | 0.00 | 0.00 | 51 | 1012.6 |
| 20260905225516 | 95 | 182 | 10.0 | 11.0 | 0.00 | 0.00 | 0.00 | 50 | 1012.5 |
| 20260905224516 | 96 | 181 | 10.0 | 12.0 | 0.00 | 0.00 | 0.00 | 49 | 1012.4 |
| 20260905223517 | 96 | 177 | 9.0 | 11.0 | 0.00 | 0.00 | 0.00 | 48 | 1012.4 |
| 20260905222517 | 97 | 179 | 9.0 | 11.0 | 0.00 | 0.00 | 0.00 | 47 | 1012.4 |
| 20260905221516 | 97 | 181 | 10.0 | 12.0 | 0.00 | 0.00 | 0.00 | 46 | 1012.4 |
| 20260905220516 | 98 | 180 | 10.0 | 15.0 | 0.00 | 0.00 | 0.00 | 46 | 1012.4 |
| 20260905215536 | 98 | 179 | 10.0 | 13.0 | 0.00 | 0.00 | 0.00 | 46 | 1012.3 |
| 20260905214516 | 98 | 182 | 11.0 | 14.0 | 0.00 | 0.00 | 0.00 | 46 | 1012.4 |
| 20260905213517 | 98 | 188 | 11.0 | 16.0 | 0.00 | 0.00 | 0.00 | 47 | 1012.4 |
| 20260905212516 | 98 | 187 | 11.0 | 15.0 | 0.00 | 0.00 | 0.00 | 47 | 1012.3 |
| 20260905211536 | 98 | 178 | 10.0 | 14.0 | 0.00 | 0.00 | 0.00 | 46 | 1012.4 |
| 20260905210516 | 98 | 183 | 11.0 | 14.0 | 0.00 | 0.00 | 0.00 | 47 | 1012.7 |
| 20260905205516 | 97 | 184 | 11.0 | 16.0 | 0.00 | 0.00 | 0.00 | 49 | 1012.9 |
| 20260905204516 | 97 | 178 | 10.0 | 11.0 | 0.00 | 0.00 | 0.00 | 50 | 1012.9 |
| 20260905203516 | 97 | 180 | 10.0 | 13.0 | 0.00 | 0.00 | 0.00 | 50 | 1012.8 |
| 20260905202516 | 97 | 178 | 10.0 | 14.0 | 0.00 | 0.00 | 0.00 | 51 | 1012.8 |
| 20260905201516 | 97 | 171 | 9.0 | 12.0 | 0.00 | 0.00 | 0.00 | 50 | 1013.1 |
| 20260905200516 | 98 | 189 | 11.0 | 15.0 | 0.00 | 0.00 | 0.00 | 51 | 1013.1 |
| 20260905195516 | 99 | 179 | 10.0 | 18.0 | 0.00 | 0.00 | 0.00 | 47 | 1013.1 |
| 20260905194518 | 99 | 179 | 10.0 | 16.0 | 0.00 | 0.00 | 0.00 | 44 | 1012.9 |
| 20260905193537 | 99 | 181 | 10.0 | 13.0 | 0.00 | 0.00 | 0.00 | 44 | 1013.2 |
| 20260905192516 | 99 | 194 | 12.0 | 16.0 | 0.00 | 0.00 | 0.00 | 44 | 1013.5 |
| 20260905191516 | 99 | 178 | 10.0 | 13.0 | 0.00 | 0.00 | 0.00 | 44 | 1013.5 |
| 20260905190516 | 98 | 189 | 11.0 | 19.0 | 0.00 | 0.00 | 0.00 | 46 | 1013.5 |
| 20260905185517 | 97 | 179 | 11.0 | 15.0 | 0.00 | 0.00 | 0.00 | 46 | 1013.7 |
| 20260905184542 | 97 | 179 | 10.0 | 13.0 | 0.00 | 0.00 | 0.00 | 47 | 1013.8 |
| 20260905183517 | 97 | 173 | 10.0 | 11.0 | 0.00 | 0.00 | 0.00 | 50 | 1013.9 |
| 20260905182536 | 96 | 173 | 10.0 | 13.0 | 0.00 | 0.00 | 0.00 | 50 | 1014.0 |
| 20260905181517 | 96 | 181 | 11.0 | 14.0 | 0.00 | 0.00 | 0.00 | 52 | 1014.0 |
| 20260905180517 | 96 | 186 | 11.0 | 13.0 | 0.00 | 0.00 | 0.00 | 52 | 1014.2 |
| 20260905175517 | 95 | 179 | 10.0 | 17.0 | 0.00 | 0.00 | 0.00 | 54 | 1014.2 |
| 20260905174541 | 95 | 179 | 10.0 | 13.0 | 0.00 | 0.00 | 0.00 | 54 | 1014.4 |
| 20260905173516 | 94 | 184 | 10.0 | 13.0 | 0.00 | 0.00 | 0.00 | 55 | 1014.5 |
| 20260905172536 | 94 | 176 | 10.0 | 13.0 | 0.00 | 0.00 | 0.00 | 56 | 1014.5 |
| 20260905171516 | 94 | 178 | 10.0 | 12.0 | 0.00 | 0.00 | 0.00 | 56 | 1014.5 |
| 20260905170516 | 94 | 186 | 10.0 | 14.0 | 0.00 | 0.00 | 0.00 | 56 | 1014.8 |
| 20260905165516 | 93 | 187 | 11.0 | 15.0 | 0.00 | 0.00 | 0.00 | 58 | 1014.9 |
| 20260905164537 | 93 | 180 | 10.0 | 12.0 | 0.00 | 0.00 | 0.00 | 59 | 1014.9 |
| 20260905163536 | 93 | 180 | 11.0 | 14.0 | 0.00 | 0.00 | 0.00 | 57 | 1015.0 |
| 20260905162517 | 92 | 180 | 10.0 | 13.0 | 0.00 | 0.00 | 0.00 | 57 | 1015.1 |
| 20260905161536 | 92 | 185 | 10.0 | 14.0 | 0.00 | 0.00 | 0.00 | 58 | 1015.3 |
| 20260905160516 | 91 | 185 | 10.0 | 13.0 | 0.00 | 0.00 | 0.00 | 58 | 1015.2 |
| 20260905155536 | 91 | 180 | 10.0 | 13.0 | 0.00 | 0.00 | 0.00 | 59 | 1015.3 |
| 20260905154516 | 90 | 186 | 11.0 | 14.0 | 0.00 | 0.00 | 0.00 | 60 | 1015.1 |
| 20260905153516 | 89 | 183 | 10.0 | 12.0 | 0.00 | 0.00 | 0.00 | 62 | 1015.3 |
| 20260905152537 | 89 | 183 | 10.0 | 13.0 | 0.00 | 0.00 | 0.00 | 64 | 1015.2 |
| 20260905151516 | 88 | 186 | 10.0 | 12.0 | 0.00 | 0.00 | 0.00 | 65 | 1015.1 |
| 20260905150516 | 87 | 190 | 11.0 | 13.0 | 0.00 | 0.00 | 0.00 | 67 | 1015.2 |
| 20260905145516 | 86 | 187 | 10.0 | 13.0 | 0.00 | 0.00 | 0.00 | 69 | 1015.2 |
| 20260905144517 | 85 | 186 | 10.0 | 12.0 | 0.00 | 0.00 | 0.00 | 71 | 1015.1 |